Phenix City, Alabama, United States (36867)
Lat: 32.47N, Lon: 85W
Wx Zone: ALZ048
Local Info
Past Weather Observations for Yesterday

NOTE: This archive is for the closest National Weather Service station to Phenix City. Information may differ from the station used for current weather conditions.

Click here for Long-term Archive

Time Weather Temperature Dewpoint Humidity Pressure Winds Precip Visibility
23:51
Clear
66°F / 19°C 64°F / 18°C 94% 29.92 in
(1013 mb)
Calm - 10SM
22:51
Clear
68°F / 20°C 64°F / 18°C 88% 29.92 in
(1013 mb)
Calm - 10SM
21:51
Clear
70°F / 21°C 66°F / 19°C 88% 29.95 in
(1014 mb)
Calm - 10SM
20:51
Clear
72°F / 22°C 66°F / 19°C 83% 29.92 in
(1013 mb)
Calm - 10SM
19:51
Clear
72°F / 22°C 66°F / 19°C 83% 29.92 in
(1013 mb)
Calm - 10SM
18:51
Clear
73°F / 23°C 66°F / 19°C 78% 29.89 in
(1012 mb)
E 3.5 mph
(E 6 kph)
- 10SM
17:51
Clear
75°F / 24°C 64°F / 18°C 69% 29.89 in
(1012 mb)
SE 4.6 mph
(SE 7 kph)
- 10SM
16:51
Partly Cloudy
79°F / 26°C 64°F / 18°C 61% 29.89 in
(1012 mb)
ENE 4.6 mph
(ENE 7 kph)
- 10SM
15:51
Mostly Cloudy
79°F / 26°C 64°F / 18°C 61% 29.89 in
(1012 mb)
Variable 5.8 mph
(Variable 9 kph)
- 10SM
14:51
Overcast
79°F / 26°C 64°F / 18°C 61% 29.89 in
(1012 mb)
Calm - 10SM
13:51
Overcast
77°F / 25°C 64°F / 18°C 65% 29.92 in
(1013 mb)
E 3.5 mph
(E 6 kph)
- 10SM
12:51
Overcast
77°F / 25°C 64°F / 18°C 65% 29.92 in
(1013 mb)
ESE 4.6 mph
(ESE 7 kph)
- 10SM
11:51
Mostly Cloudy
75°F / 24°C 64°F / 18°C 69% 29.95 in
(1014 mb)
SE 5.8 mph
(SE 9 kph)
- 10SM
11:01
Overcast
75°F / 24°C 64°F / 18°C 69% 29.95 in
(1014 mb)
E 5.8 mph
(E 9 kph)
- 10SM
10:51
Overcast
73°F / 23°C 66°F / 19°C 78% 29.95 in
(1014 mb)
ESE 6.9 mph
(ESE 11 kph)
- 10SM
10:36
Overcast
73°F / 23°C 66°F / 19°C 78% 29.95 in
(1014 mb)
ESE 6.9 mph
(ESE 11 kph)
- 10SM
09:51
Overcast
72°F / 22°C 66°F / 19°C 83% 29.95 in
(1014 mb)
E 8.1 mph
(E 13 kph)
- 10SM
08:51
Overcast
70°F / 21°C 66°F / 19°C 88% 29.95 in
(1014 mb)
ENE 4.6 mph
(ENE 7 kph)
- 10SM
08:48
Overcast
70°F / 21°C 66°F / 19°C 88% 29.95 in
(1014 mb)
E 4.6 mph
(E 7 kph)
- 10SM
08:23
Overcast
70°F / 21°C 66°F / 19°C 88% 29.98 in
(1015 mb)
ENE 3.5 mph
(ENE 6 kph)
- 10SM
08:03
Overcast
68°F / 20°C 66°F / 19°C 94% 29.95 in
(1014 mb)
Calm - 10SM
07:51
Overcast
68°F / 20°C 66°F / 19°C 94% 29.95 in
(1014 mb)
Calm 0.03 in
(0.76 mm)
7SM
07:40
Overcast
Light Rain
66°F / 19°C 66°F / 19°C 100% 29.95 in
(1014 mb)
Calm 0.02 in
(0.51 mm)
3SM
07:33
Overcast
Rain
66°F / 19°C 66°F / 19°C 100% 29.95 in
(1014 mb)
Calm 0.02 in
(0.51 mm)
1 3/4SM
07:26
Overcast
Light Rain
66°F / 19°C 66°F / 19°C 100% 29.95 in
(1014 mb)
Calm 0.01 in
(0.25 mm)
2SM
07:12
Overcast
Light Rain
66°F / 19°C 66°F / 19°C 100% 29.95 in
(1014 mb)
ENE 3.5 mph
(ENE 6 kph)
0.00 in
(0.00 mm)
2 1/2SM
07:00
Overcast
Light Rain
66°F / 19°C 66°F / 19°C 100% 29.95 in
(1014 mb)
E 3.5 mph
(E 6 kph)
0.00 in
(0.00 mm)
3SM
06:57
Overcast
Light Rain
68°F / 20°C 66°F / 19°C 94% 29.95 in
(1014 mb)
Calm 0.00 in
(0.00 mm)
2 1/2SM
06:54
Overcast
Light Rain
66°F / 19°C 66°F / 19°C 100% 29.95 in
(1014 mb)
Calm 0.00 in
(0.00 mm)
2 1/2SM
06:51
Overcast
Light Rain
66°F / 19°C 66°F / 19°C 100% 29.95 in
(1014 mb)
ENE 3.5 mph
(ENE 6 kph)
0.01 in
(0.25 mm)
3SM
06:13
Overcast
68°F / 20°C 66°F / 19°C 94% 29.95 in
(1014 mb)
Calm - 10SM
05:51
Overcast
68°F / 20°C 66°F / 19°C 94% 29.92 in
(1013 mb)
Calm - 10SM
05:47
Overcast
68°F / 20°C 66°F / 19°C 94% 29.92 in
(1013 mb)
E 3.5 mph
(E 6 kph)
- 10SM
05:27
Overcast
68°F / 20°C 66°F / 19°C 94% 29.92 in
(1013 mb)
E 3.5 mph
(E 6 kph)
- 10SM
05:15
Overcast
68°F / 20°C 66°F / 19°C 94% 29.92 in
(1013 mb)
Calm - 10SM
04:59
Overcast
68°F / 20°C 66°F / 19°C 94% 29.92 in
(1013 mb)
Calm - 10SM
04:51
Overcast
68°F / 20°C 66°F / 19°C 94% 29.92 in
(1013 mb)
ENE 3.5 mph
(ENE 6 kph)
0.00 in
(0.00 mm)
9SM
04:18
Overcast
Fog And Mist
68°F / 20°C 66°F / 19°C 94% 29.92 in
(1013 mb)
ENE 3.5 mph
(ENE 6 kph)
0.00 in
(0.00 mm)
4SM
03:51
Overcast
Light Rain
68°F / 20°C 66°F / 19°C 94% 29.92 in
(1013 mb)
ENE 3.5 mph
(ENE 6 kph)
0.00 in
(0.00 mm)
5SM
03:43
Overcast
Light Rain
68°F / 20°C 66°F / 19°C 94% 29.92 in
(1013 mb)
Calm 0.00 in
(0.00 mm)
6SM
03:32
Overcast
68°F / 20°C 64°F / 18°C 88% 29.92 in
(1013 mb)
E 3.5 mph
(E 6 kph)
- 7SM
02:51
Overcast
70°F / 21°C 64°F / 18°C 83% 29.92 in
(1013 mb)
NE 3.5 mph
(NE 6 kph)
- 10SM
01:51
Overcast
70°F / 21°C 64°F / 18°C 83% 29.92 in
(1013 mb)
E 8.1 mph
(E 13 kph)
- 10SM
00:51
Overcast
70°F / 21°C 64°F / 18°C 83% 29.92 in
(1013 mb)
ENE 5.8 mph
(ENE 9 kph)
- 10SM
00:10
Overcast
70°F / 21°C 64°F / 18°C 83% 29.92 in
(1013 mb)
ENE 8.1 mph
(ENE 13 kph)
- 10SM
Time Weather Temperature Dewpoint Humidity Pressure Winds Precip Visibility


Weather for websites

WeatherForYou.com, LLC is not responsible for any damages or problems caused by this service. Current weather conditions are obtained from the closest station including government and personal stations which may have varying degrees of accuracy. Weather forecasts are derived from the NOAA NDFD. Like all things, this site belongs to Jesus Christ... He just trusts me to maintain it. If you have any questions or comments email webmaster@weatherforyou.com

Copyright © 2014, WeatherForYou.com LLC. All rights reserved.